User: anonymous
Location: Starry Hill Observatory
(46.8582°N, 122.3590°W)
Time: 02:52:23
(UTC-07:00)
Language:

Cosmos 1300 Rocket - Orbit

View from above orbital plane
View from above orbital plane
View from above satellite
View from above satellite

Ground track
Ground track

The orbit data is extracted from the following two-line orbital elements,

1 12786U 81082B   14204.07889910  .00000135  00000-0  13183-4 0  9311
2 12786 082.4866 246.5730 0018936 150.1444 237.9824 14.84134815777547
Epoch (UTC): 23 July 2014 01:53:36
Eccentricity: 0.0018936
inclination: 82.4866°
perigee height: 603 km
apogee height: 629 km
right ascension of ascending node: 246.5730°
argument of perigee: 150.1444°
revolutions per day: 14.84134815
mean anomaly at epoch: 237.9824°
orbit number at epoch: 77754

The dashed part of the orbit path shows where the satellite is in the earth's shadow,  

DLR